Regional Weather Roundup
Issued by NWS

Home | Current Version | Previous Version | Text Only | Print | Product List | Glossary Off
Versions: 1 2 3 4 5 6 7 8 9 10 11 12 13 14 15 16 17 18 19 20 21 22 23 24 25 26 27 28 29 30 31 32 33 34 35 36 37 38 39 40 41 42 43 44 45 46 47 48 49 50

898
ASUS43 KDTX 242301
RWRMI
MICHIGAN HOURLY REGIONAL WEATHER ROUNDUP
NATIONAL WEATHER SERVICE DETROIT/PONTIAC MI
700 PM EDT MON APR 24 2017

NOTE: "FAIR" INDICATES FEW OR NO CLOUDS BELOW 12,000 FEET WITH NO
SIGNIFICANT WEATHER AND/OR OBSTRUCTION TO VISIBILITY.

MIZ047>049-052>055-059>063-066>070-074>076-081>083-250000-
SOUTHEAST LOWER MICHIGAN

CITY           SKY/WX    TMP DP  RH WIND       PRES   REMARKS
ADRIAN         SUNNY     63  40  42 SE15      29.92F
ALMA           CLOUDY    63  47  56 E13       29.92F
ANN ARBOR      CLOUDY    67  33  28 E10       29.91F
BAD AXE        MOSUNNY   53  40  61 E12       29.99S
CARO           MOSUNNY   66  41  39 SE12      29.94F
DETROIT CITY   MOSUNNY   65  36  34 SE14      29.94F
DETROIT        PTSUNNY   68  36  30 E13       29.93F
FLINT          CLOUDY    67  31  26 SE12      29.92F
GROSSE ILE     SUNNY     63  34  33 E12G21    29.93S
HILLSDALE      CLOUDY    63  32  31 E9G16     29.89F
HOWELL         MOSUNNY   67  22  17 SE9       29.92F

CITY           SKY/WX    TMP DP  RH WIND       PRES   REMARKS
JACKSON        CLOUDY    67  35  30 E15       29.90F
LAMBERTVILLE   SUNNY     56  40  55 E10G20    29.93F
LANSING        CLOUDY    69  27  20 SE13      29.91F
LAPEER         FAIR      67  36  31 SE9G18    29.95S
MASON          CLOUDY    68  35  30 E9G21     29.91F
MONROE         MOSUNNY   59  41  50 E8        29.92F
MT. CLEMENS    PTSUNNY   65  37  35 E6        29.92F
PONTIAC        CLOUDY    67  29  24 E9        29.92F
PORT HOPE        N/A     44  38  79 E6        29.99F
PORT HURON     CLOUDY    55  39  54 N5        29.97F
TRI CITIES     PTSUNNY   52  45  77 NE14      29.94F
MIDLAND        FAIR      54  42  62 E12       29.94F
TROY           CLOUDY    69  22  17 E13       29.95F
SAGINAW HB     MOSUNNY   55  45  67 N9        29.93F
$$
MIZ043>046-050>051-056>058-064>065-071>073-077>080-250000-
SOUTHWEST LOWER MICHIGAN

CITY           SKY/WX    TMP DP  RH WIND       PRES   REMARKS
BATTLE CREEK   CLOUDY    70  29  21 SE10      29.88F
BENTON HARBOR  MOSUNNY   72  27  18 E13       29.83F
BIG RAPIDS     CLOUDY    66  33  29 SE12      29.89F
COLDWATER      CLOUDY    67  29  25 E13G18    29.88F
FREMONT        FAIR      69  28  21 SE13G18   29.87F
HOLLAND        MOSUNNY   70  32  24 SE10      29.86F
GRAND RAPIDS   PTSUNNY   69  31  24 E10       29.87F
IONIA          FAIR      68  28  22 E12G20    29.89S
KALAMAZOO      MOSUNNY   71  27  19 E9G20     29.87F
LUDINGTON      MOSUNNY   61  34  36 CALM      29.85F
MARSHALL       CLOUDY    69  30  23 E12G18    29.89S
MOUNT PLEASANT MOSUNNY   64  41  43 E14       29.92S
MUSKEGON       PTSUNNY   71  31  22 SE17      29.85F
SOUTH HAVEN    MOSUNNY   72  27  18 SE7       29.84F
$$
MIZ016>042-250000-
NORTHERN LOWER MICHIGAN

CITY           SKY/WX    TMP DP  RH WIND       PRES   REMARKS
ALPENA         PTSUNNY   45  33  63 E9        30.03F
BEAVER ISLAND  CLOUDY    45  36  68 E15G21    29.92F
BELLAIRE       MOSUNNY   69  30  23 S9G17     29.88F
CADILLAC       CLOUDY    65  31  27 SE14      29.90F
CHARLEVOIX     CLOUDY    59  40  48 E9        29.92F
FRANKFORT      CLOUDY    61  29  29 CALM      29.87F
GAYLORD        MOSUNNY   61  37  41 E10G22    29.92F
GRAYLING       CLOUDY    65  31  29 SE17      29.94S
HARBOR SPRINGS MOSUNNY   55  38  52 NE14G22   29.92S
HOUGHTON LAKE  PTSUNNY   63  36  36 S13       29.94S
MANISTEE       CLOUDY    60  32  34 CALM      29.86F
OSCODA         MOSUNNY   45  33  62 NE9       30.01F
PELLSTON       MOSUNNY   52  34  50 E12       29.95F
ROGERS CITY    MOSUNNY   47  32  55 SE17      30.02F
TRAVERSE CITY  CLOUDY    58  39  49 NW3       29.86F
$$
MIZ007>008-015-250000-
EASTERN UPPER MICHIGAN

CITY           SKY/WX    TMP DP  RH WIND       PRES   REMARKS
KINROSS        MOSUNNY   48  31  51 SE20      30.00F
MACKINAC ISLAN SUNNY     40  31  68 E20G31    29.99F WCI  31
NEWBERRY       MOSUNNY   47  35  62 SE16      29.94F
S. S. MARIE    CLOUDY    49  31  49 E15G22    30.00F
MUNISING         N/A     56  36  47 S8G17     29.86F
$$
MIZ004>006-011>014-085-250000-
CENTRAL UPPER MICHIGAN

CITY           SKY/WX    TMP DP  RH WIND       PRES   REMARKS
MANISTIQUE     CLOUDY    46  36  69 E14G22    29.91F
ESCANABA       CLOUDY    48  38  68 E10       29.88F
SAWYER-GWINN   SUNNY     52  37  58 S15       29.84F
$$
MIZ001>003-009>011-084-250000-
WESTERN UPPER MICHIGAN

CITY           SKY/WX    TMP DP  RH WIND       PRES   REMARKS
IRON MOUNTAIN  CLOUDY    54  36  50 SE12G21   29.81S
HOUGHTON       CLOUDY    43  33  68 E18G25    29.78F
COPPER HARBOR    N/A     42  33  70 SE13G28   29.83F
IRONWOOD       CLOUDY    65  28  24 S17G23    29.68F
$$

ABBREVIATIONS USED IN REMARKS
   TC - TEMPERATURE IN CELSIUS
  WCI - WIND CHILL INDEX
   HX - HEAT INDEX
  VSB - VISIBILITY





USA.gov is the U.S. government's official web portal to all federal, state and local government web resources and services.